Location: Boiro
(42.6475°N, 8.8834°W)
Time: 08:04:41
(UTC+01:00)

SR - Pass Details

Date: 06 December 2021
Orbit: 583 x 872 km, 66.7° (Epoch: 16 January)

Event Time Altitude Azimuth Distance (km) Brightness Sun altitude
Rises 00:35:19 0° 213° (SSW) 3,001 - -67.2°
Reaches altitude 10° 00:37:42 10° 214° (SW) 2,049 - -67.4°
Maximum altitude 00:42:17 77° 301° (WNW) 639 - -67.8°
Drops below altitude 10° 00:46:38 10° 28° (NNE) 1,940 - -68.2°
Sets 00:48:50 0° 30° (NNE) 2,828 - -68.4°
